Find Jilin-1 GaoFen 07C 03 xing

NORAD ID: 68698 Int'l Des: 2026-080 Owner: CGSTL Country: CN Constellation: jilin-1 operational
LEOCIRCULARRETROGRADESSO

Live Position

Loading 3D Globe...

About Jilin-1 GaoFen 07C 03 xing

Description loading...

Upcoming Passes

Passes for default location (London). Set your location on the main map for personalized predictions.

Altitude History

Loading altitude history...

Two-Line Element Set

1 68698U 26080H 26105.07419377 .00001014 00000-0 67136-4 0 9998
2 68698 97.6665 180.7184 0013930 282.9895 76.9778 15.09549566 101
Epoch: Apr 15, 2026 • Age: 24 hours

Current Status

Altitude 540.0 km
Velocity 7.59 km/s
Sub-Earth Point -16.59°S, 43.78°W
Launch Date Apr 14, 2026
Age 2 days
Type other

Technical Details

Classification Payload
Mass 50.00 kg
Dry Mass 50.00 kg
Total Mass 50.00 kg
Length 1.50 m
Diameter 1.00 m
Span 1.50 m
Shape Box
Manufacturer CGSTL
Bus Type JL-1GF07
Phase Status In Orbit
Owner/State CGSTL/CN

Most Searched